Wind_Gust
17 17 16 16 16 17 16 16 17 16 16 16 17 17 16 17 18 18 19 19 19 20 20 20 20 21 22 22 23 24 21 18 21 14 8 29 9 17 11 10 6 6 11 5 1 2 4 2 3 3 6 6 6 7 7 5 6 6 10 10 8 13 8 10 13 14 4 8 10 16 7 8 8 8 12 19 15 17 14 12 10 16 15 14 19 22 24 22
17 17 17 17 17 16 17 16 17 17 17 16 16 17 17 17 17 18 19 19 19 20 20 19 20 20 22 21 23 23 20 13 19 18 38 13 15 13 19 22 9 10 12 5 6 4 5 1 2 4 8 8 2 7 6 10 8 9 8 9 19 11 15 8 8 9 8 11 10 14 8 5 9 11 13 18 10 18 19 13 17 21 21 20 20 22 23 22
18 17 17 17 18 17 17 17 17 17 18 17 17 17 17 17 17 18 18 19 20 19 19 19 19 20 21 21 22 21 17 18 9 21 33 20 31 27 22 22 16 12 7 5 5 9 9 7 8 7 4 5 3 7 5 9 11 10 12 13 18 8 8 8 8 10 7 10 16 12 14 7 9 5 5 12 16 11 23 28 22 26 24 24 21 22 22 21
22 19 17 18 18 18 17 17 17 17 17 17 17 17 17 17 18 18 18 19 19 19 19 19 19 20 21 21 20 15 10 9 13 17 6 9 19 26 30 25 18 15 6 6 6 9 5 9 7 8 6 4 6 2 11 10 14 8 10 17 10 9 11 13 8 13 15 5 8 9 10 7 6 3 8 16 20 6 6 23 31 29 27 27 24 24 22 22
22 22 22 19 18 19 18 18 18 18 17 18 17 17 17 18 17 18 18 19 19 19 19 18 19 19 21 21 19 6 9 7 16 4 4 8 7 16 21 24 19 13 13 5 7 3 5 4 6 3 6 12 3 3 7 6 9 9 13 5 7 5 8 12 10 12 11 6 5 5 8 7 4 10 12 21 26 25 30 23 23 33 33 34 30 25 24 22
23 23 23 23 20 19 19 19 18 18 17 18 18 17 18 18 17 17 18 19 19 18 18 17 18 19 20 20 15 3 4 14 7 7 14 10 10 11 16 18 21 15 12 9 8 5 7 2 5 6 7 6 7 10 8 7 5 12 8 5 9 11 15 7 8 9 3 6 6 8 6 4 5 6 14 9 7 10 11 9 12 27 32 25 28 31 26 23
22 22 23 22 22 22 21 19 18 18 18 18 18 18 17 17 17 17 17 18 18 18 18 18 18 19 19 16 10 3 9 29 7 11 18 15 18 15 11 18 21 17 12 11 7 11 4 5 7 4 8 5 3 11 11 3 3 10 16 2 8 8 14 14 15 12 8 7 14 7 6 9 10 13 7 6 7 10 12 18 20 21 23 25 27 21 23 22
23 23 23 23 24 25 24 22 19 18 18 18 18 18 17 17 17 17 17 17 17 17 17 17 17 17 17 11 10 6 4 28 21 10 19 19 17 14 15 12 18 17 14 15 13 8 7 9 11 7 6 14 7 13 3 5 4 7 11 6 10 9 11 14 14 13 12 11 11 8 8 6 8 11 6 6 6 13 18 21 24 24 22 19 20 21 20 19
24 24 24 24 23 23 24 23 22 19 18 18 18 18 18 17 17 17 17 16 16 16 16 16 16 15 14 4 5 8 24 16 8 11 15 18 12 10 12 17 13 21 16 11 9 10 11 11 7 10 10 8 5 3 5 5 12 11 14 11 9 9 10 12 11 14 13 9 8 7 5 4 14 16 14 8 9 14 20 21 24 24 23 21 19 19 18 19
23 23 24 24 24 25 25 24 23 22 19 18 18 18 18 17 17 17 17 16 16 16 16 15 15 15 8 8 4 8 17 5 7 10 12 16 13 6 11 7 14 13 17 8 7 10 12 12 12 6 7 5 5 8 3 8 12 6 6 8 12 14 11 9 11 14 8 6 7 10 7 11 5 9 7 10 14 19 21 23 20 23 23 20 20 19 19 20
23 23 23 24 25 25 25 24 24 24 22 18 18 17 18 17 17 17 16 16 16 15 15 15 14 11 6 5 7 22 9 6 6 12 13 12 12 7 4 8 4 16 13 7 13 16 9 10 6 8 5 15 6 5 5 8 3 6 6 5 8 12 11 12 9 14 6 10 14 18 11 4 8 5 15 18 17 21 27 26 22 19 18 19 18 17 19 20
24 24 24 23 23 24 24 24 24 23 22 20 18 17 17 17 17 17 17 16 16 15 14 13 14 11 10 11 16 33 6 5 14 16 17 10 12 9 7 7 6 7 13 13 12 12 9 8 5 7 13 4 8 2 7 5 5 5 4 8 11 10 12 7 13 13 10 9 9 12 11 5 9 9 13 17 18 21 20 26 24 18 17 16 17 16 18 21
23 23 24 24 23 24 24 24 24 24 24 22 17 17 16 16 16 17 17 16 14 15 14 13 10 5 9 17 30 34 28 28 20 18 21 7 10 9 8 5 8 10 9 13 9 9 8 9 6 6 7 5 5 13 5 4 6 5 2 3 9 11 12 12 5 7 6 10 16 12 8 10 6 10 16 17 22 21 21 21 20 16 16 16 19 14 11 10
23 23 23 22 23 24 24 24 24 25 25 23 20 16 17 16 17 16 17 16 16 15 14 13 6 7 11 25 24 10 11 14 14 19 18 6 4 7 2 5 7 10 6 9 8 7 12 7 8 7 4 4 9 5 9 9 6 6 7 4 6 3 11 8 8 6 11 11 13 6 9 10 7 13 16 17 22 26 24 22 21 16 16 18 16 16 15 15
22 23 23 22 23 24 24 24 23 24 23 22 21 16 14 16 16 17 17 14 14 13 13 9 5 7 10 30 14 21 30 20 16 25 18 6 5 8 9 5 4 10 12 11 9 5 10 10 7 6 10 6 6 6 10 5 7 4 8 11 9 6 12 14 6 10 16 10 9 13 6 11 11 18 19 18 19 20 27 23 18 16 18 17 16 17 14 12
22 22 23 23 22 24 23 23 23 22 22 23 21 16 16 17 16 16 16 15 16 14 6 4 6 8 11 31 19 9 6 8 15 21 17 11 9 12 4 5 3 4 6 7 11 7 7 10 11 15 9 4 8 9 5 7 7 9 6 5 4 3 9 11 3 7 10 11 4 8 12 8 4 13 17 17 21 20 27 22 17 17 17 19 15 13 13 13
23 22 22 22 22 22 23 24 22 22 22 20 18 16 14 15 17 17 16 16 12 9 6 8 4 8 11 14 10 7 12 15 7 6 4 10 14 11 4 3 5 5 6 7 7 6 4 11 6 7 5 10 9 10 6 5 7 7 5 9 7 6 6 6 15 5 5 5 7 7 17 10 15 19 18 19 18 20 20 23 19 16 17 16 14 14 15 14
24 23 22 21 22 21 23 23 23 22 20 18 16 9 14 15 19 17 12 8 5 6 5 4 3 6 33 24 19 9 5 8 5 9 7 5 12 8 7 9 5 6 8 6 4 10 9 14 8 14 4 9 8 8 19 18 17 11 6 5 6 3 4 7 10 7 6 7 10 6 11 6 18 19 20 23 17 16 21 23 22 19 16 15 14 16 15 14
26 25 24 22 20 21 21 22 22 21 20 11 7 10 15 17 8 4 5 8 9 5 7 17 16 18 8 5 8 9 13 11 10 4 6 9 5 6 5 5 6 8 9 11 10 12 9 7 7 7 16 10 15 13 15 11 11 10 10 10 6 4 6 6 9 9 5 3 10 10 12 11 13 19 19 17 23 21 20 18 17 15 13 14 14 15 15 14
25 23 23 22 20 20 20 20 20 19 18 7 7 9 10 8 6 10 8 10 15 14 8 6 26 10 16 5 7 15 12 5 5 8 6 4 17 8 6 8 5 7 11 16 6 11 12 15 18 23 16 16 11 13 13 10 11 6 5 6 3 5 8 8 6 8 8 4 6 9 9 16 18 22 20 25 18 14 18 20 23 16 17 17 17 16 16 14
24 23 22 21 19 20 19 19 19 17 15 9 8 7 12 10 5 12 9 15 20 19 20 13 20 25 24 6 10 22 22 12 3 6 6 4 9 17 12 11 8 7 7 10 15 6 10 13 19 8 8 10 10 9 10 7 5 7 5 3 6 2 7 7 5 7 9 6 5 6 11 15 21 19 20 21 22 17 18 20 22 22 17 15 17 17 15 13
24 23 21 20 19 19 18 18 17 16 13 9 9 12 9 9 4 4 6 18 12 24 24 26 15 23 29 26 15 10 8 11 19 11 12 7 9 25 8 12 10 16 4 7 8 11 17 24 10 8 10 9 7 9 8 12 7 4 7 5 3 10 8 11 6 7 4 5 12 8 12 14 17 19 18 25 28 29 33 34 35 25 20 16 16 16 14 15
25 22 22 20 19 18 18 17 15 14 10 10 11 12 19 10 11 8 7 16 26 19 24 25 22 26 36 24 15 5 7 13 18 10 9 10 7 16 16 14 11 10 9 10 19 9 11 13 10 7 9 11 5 7 8 7 6 8 5 5 13 8 5 10 5 4 9 7 6 5 9 7 9 13 21 23 27 25 21 18 15 11 19 21 20 14 18 17
21 21 20 19 18 18 17 16 11 9 10 12 11 19 5 6 5 5 6 13 16 8 19 24 28 26 30 21 18 19 14 15 11 12 8 14 17 10 18 13 13 13 16 10 9 14 10 7 13 11 10 12 10 7 10 11 11 4 8 8 10 5 5 9 9 11 7 6 8 12 12 7 8 14 15 13 21 14 15 20 17 17 22 23 18 16 12 13
20 20 19 17 17 16 17 12 8 11 11 11 18 20 11 14 8 7 7 12 12 22 12 14 13 16 20 10 9 18 10 13 15 7 6 10 12 16 10 14 18 18 11 10 10 10 11 8 10 17 8 8 10 8 12 14 10 8 8 15 12 5 6 3 6 10 15 14 5 10 8 12 10 21 27 15 16 16 18 19 17 16 17 18 14 14 12 12
19 18 18 16 15 14 10 10 11 12 11 14 11 6 8 11 12 7 7 9 15 12 10 17 25 23 30 12 19 13 7 17 15 23 9 9 7 14 17 16 18 17 9 12 16 17 15 6 13 15 13 8 8 12 8 13 12 8 18 13 8 7 6 2 5 4 6 9 8 5 15 13 8 13 15 16 21 18 16 19 21 20 20 20 15 16 15 16
16 16 17 16 14 8 9 15 8 13 10 15 9 7 8 8 10 14 12 10 12 23 21 9 20 21 24 20 24 15 10 22 6 8 15 13 12 9 20 9 12 9 14 15 15 23 15 12 8 8 14 15 10 15 10 14 14 17 6 12 11 8 7 7 6 7 14 6 12 5 12 13 9 19 13 19 23 20 20 18 22 24 20 20 21 16 14 16
15 16 15 14 13 9 10 9 7 11 13 12 7 8 10 8 11 7 7 10 22 13 14 13 21 12 12 22 24 29 10 4 23 15 14 11 7 12 16 14 15 13 10 13 23 6 15 14 13 10 8 15 21 11 10 14 19 16 5 15 13 15 13 10 9 11 8 3 19 10 4 10 12 14 5 16 22 21 24 22 22 22 23 21 18 18 15 14
14 13 15 13 13 14 9 10 7 14 7 7 11 12 9 9 14 11 10 12 11 17 13 16 12 7 9 18 20 21 9 6 9 12 9 6 12 11 22 10 13 12 7 13 15 8 9 16 16 15 16 22 12 10 16 16 14 8 7 6 7 5 4 6 9 7 5 6 16 12 8 15 11 8 15 13 23 28 25 25 23 24 26 27 22 22 17 14
12 13 12 12 8 5 7 8 15 8 6 9 10 12 9 11 13 9 10 13 8 5 7 8 14 12 17 24 18 19 10 7 6 15 12 17 12 5 6 10 13 14 13 6 10 13 5 7 17 21 22 14 10 8 15 14 11 6 9 9 6 9 5 4 8 8 6 9 19 11 10 15 16 14 22 29 34 30 23 17 15 16 19 21 17 19 19 17
12 13 12 8 6 7 7 10 12 7 8 7 11 10 11 8 13 12 9 17 9 4 6 11 13 17 23 23 22 18 11 6 6 24 18 12 11 10 13 14 8 12 8 9 14 11 7 5 15 16 13 10 8 11 7 12 9 12 10 10 5 11 9 7 6 5 14 19 15 10 14 13 19 9 13 14 6 24 29 25 25 24 24 21 19 19 19 15
11 11 11 6 7 5 13 7 11 11 10 12 12 8 13 14 9 14 18 7 12 10 6 9 6 22 19 10 16 27 25 6 5 23 28 27 17 25 25 23 26 24 22 16 19 8 16 14 6 5 15 17 11 11 6 6 5 10 11 12 18 13 12 17 10 15 16 20 7 2 9 8 16 16 13 22 11 20 23 32 37 31 23 23 19 20 19 15
9 9 11 9 9 6 11 5 7 8 11 13 9 7 12 10 17 13 13 12 11 14 11 6 11 15 17 11 17 20 8 12 5 11 17 14 22 17 8 16 11 21 24 6 8 15 16 8 6 9 7 19 17 24 14 11 13 14 19 17 18 16 16 17 12 11 9 14 7 5 7 11 9 13 5 19 11 17 16 10 9 15 19 20 20 20 18 16
8 7 5 5 8 11 5 6 8 7 9 13 8 11 6 11 14 8 10 8 12 15 13 10 15 12 17 26 15 22 15 5 9 19 18 22 20 23 16 12 15 8 12 13 26 19 13 20 27 15 19 14 23 23 21 11 14 20 9 20 16 15 21 18 16 20 15 16 6 8 14 15 7 9 5 7 7 9 14 14 13 16 17 14 17 18 17 16
6 5 4 5 8 8 8 8 5 5 5 10 8 13 19 17 5 7 7 13 14 16 13 18 10 13 12 7 5 17 11 18 7 11 14 23 26 27 26 21 7 12 10 25 15 18 23 24 13 15 6 14 19 14 13 13 13 10 13 14 12 26 12 7 14 12 11 10 7 9 11 3 9 7 6 6 12 19 19 19 23 20 16 16 18 23 18 16
4 5 3 4 5 5 9 8 3 5 5 9 13 15 13 10 7 10 11 14 13 21 25 21 13 12 9 9 5 16 8 12 10 14 10 16 11 21 10 16 25 16 19 24 15 17 11 22 4 8 12 11 18 15 17 17 23 15 18 27 21 9 10 8 3 3 5 10 9 6 8 8 4 7 11 13 19 19 22 24 22 17 16 16 16 20 17 17
5 4 4 4 4 6 8 7 6 6 6 7 7 9 8 8 11 10 15 17 19 20 14 10 18 11 12 18 13 16 11 8 9 14 17 10 16 14 18 9 8 10 13 19 9 10 20 13 7 11 16 17 8 18 15 17 15 18 22 15 6 6 10 13 14 6 8 13 13 4 8 7 6 13 12 18 22 20 25 23 21 17 17 18 17 13 20 18
6 6 8 7 5 6 8 5 4 5 8 5 6 8 4 9 12 14 15 21 22 16 10 3 9 8 11 11 13 18 7 13 8 12 11 12 23 8 13 20 9 16 9 3 17 13 9 9 12 10 13 15 7 7 6 9 10 20 16 13 30 19 17 9 12 9 9 12 11 8 8 8 8 8 17 23 23 25 26 22 20 18 18 17 19 17 21 17
3 4 9 12 6 6 6 9 8 7 5 8 7 8 10 8 12 10 17 20 18 18 10 5 7 5 8 12 9 8 13 22 9 8 20 19 16 13 21 13 11 10 11 9 13 9 7 11 10 7 14 10 12 14 18 19 6 4 10 23 9 13 10 13 23 11 17 7 8 8 7 15 13 11 18 24 22 24 27 23 25 24 20 21 21 18 22 20
4 4 11 7 5 9 7 9 8 7 5 8 5 10 12 14 8 11 15 17 14 15 6 8 7 9 6 3 7 14 10 10 13 10 7 13 21 4 17 14 16 15 13 9 9 5 9 6 7 9 4 14 21 24 22 20 19 11 16 18 13 13 7 14 7 9 12 19 14 14 12 17 17 12 15 19 23 28 30 29 25 23 20 20 18 19 19 20
5 8 7 5 9 4 5 6 6 8 6 5 3 8 11 14 13 13 16 12 17 11 16 15 13 5 4 10 5 8 16 11 15 12 12 10 19 14 12 17 15 17 13 8 10 6 8 9 13 7 13 16 15 14 10 18 18 19 21 18 14 15 11 16 16 7 9 17 16 14 17 16 16 5 16 20 20 21 22 25 22 19 20 22 19 18 20 22
4 10 5 5 9 4 6 7 9 3 6 5 6 9 14 11 11 11 17 7 10 18 11 15 12 13 8 9 6 4 15 15 12 10 9 12 9 7 11 11 14 14 25 23 19 8 14 10 8 7 14 15 8 3 11 21 20 17 21 14 12 10 16 16 18 12 9 7 10 8 9 13 10 4 6 15 15 17 17 20 19 19 20 20 20 19 19 23
11 5 4 6 6 5 8 8 5 5 5 6 9 11 10 13 11 15 14 10 12 11 12 13 11 5 9 10 4 4 8 17 14 16 7 9 9 19 9 15 13 17 18 19 8 13 8 11 10 7 8 10 9 8 4 10 17 8 12 9 15 15 15 19 16 14 16 7 7 5 9 12 7 5 5 15 14 15 16 20 20 18 18 21 21 20 20 21
7 8 7 5 4 9 9 4 5 5 7 9 6 13 10 13 9 12 13 11 11 8 8 9 7 9 7 3 4 6 6 14 10 13 13 7 17 13 9 13 18 22 22 17 26 13 23 11 12 6 8 6 11 7 8 3 12 16 16 13 14 12 8 6 11 5 14 14 13 16 15 10 8 7 10 17 18 18 19 18 24 21 19 20 22 19 19 21
5 5 3 7 8 10 6 5 5 2 6 8 12 13 10 10 11 17 16 15 12 18 10 12 13 10 12 4 3 2 4 8 16 17 8 7 13 6 14 13 16 14 12 11 10 13 15 7 12 8 13 15 20 23 19 13 20 12 6 11 9 14 13 12 11 8 14 6 7 13 11 10 7 12 15 17 17 16 15 17 19 22 19 21 21 20 20 20
6 11 10 7 8 7 5 5 5 7 9 9 7 8 6 9 10 15 19 26 22 21 22 19 18 11 7 10 9 5 6 2 7 19 18 8 8 10 12 17 18 14 13 17 13 18 18 7 8 13 13 13 16 14 10 8 9 15 7 15 12 10 14 12 13 12 16 9 9 11 13 14 17 20 19 19 21 21 20 21 24 24 22 19 19 20 19 18
4 8 7 7 7 4 10 7 10 9 7 8 11 9 5 9 14 19 15 17 14 20 12 16 9 4 8 9 3 4 4 7 10 14 11 6 6 7 6 16 16 19 18 19 15 15 11 13 6 9 7 10 8 7 7 8 14 9 11 12 9 12 12 14 16 19 12 20 8 8 11 25 21 20 19 22 22 20 18 19 20 22 24 23 19 19 16 19
9 4 2 5 6 7 5 13 11 14 13 8 9 6 10 12 10 10 13 20 21 10 11 8 10 6 6 6 4 8 10 6 6 10 5 4 4 7 8 4 14 16 20 18 14 16 16 18 5 6 6 7 8 7 10 13 7 9 10 14 11 10 9 15 13 7 13 14 17 11 17 20 24 27 30 32 34 33 29 25 20 19 21 21 21 20 20 19
4 4 4 4 6 5 10 7 9 10 12 12 10 8 11 11 15 13 11 12 9 10 9 7 4 9 11 7 9 6 4 9 9 6 10 5 3 6 10 7 4 5 18 11 17 12 21 9 6 6 5 8 11 10 8 21 10 10 8 5 7 16 14 11 7 7 12 7 9 19 19 9 9 17 20 17 13 19 21 19 19 20 21 22 23 21 20 20
8 6 6 3 8 12 11 9 9 10 13 13 9 10 10 9 13 13 10 7 9 7 9 11 3 8 9 9 10 9 4 5 4 6 5 3 6 13 6 6 7 7 11 15 19 4 15 13 10 9 8 4 8 10 9 12 12 13 7 8 7 11 11 6 8 6 10 12 6 16 16 11 6 10 17 15 18 18 20 22 22 21 21 23 23 22 21 21
9 5 7 8 9 8 9 9 9 9 10 6 8 10 7 9 9 14 10 7 6 6 7 2 2 4 6 8 7 6 8 4 5 7 7 4 8 4 10 7 3 13 12 14 14 9 10 7 6 13 12 4 4 7 6 13 16 13 7 8 8 11 13 7 16 11 12 13 16 16 11 12 11 17 18 19 22 25 25 24 23 22 21 22 24 22 22 21
10 5 5 7 8 8 8 8 9 6 8 6 7 10 13 11 11 11 7 5 2 3 5 4 3 7 5 12 10 9 10 6 10 10 8 10 9 10 11 8 5 14 19 15 4 16 15 16 14 12 16 9 5 6 4 8 9 10 3 3 4 6 5 6 5 5 7 26 22 17 21 17 21 23 25 22 25 24 23 24 23 21 20 22 24 24 23 22
Wind_Speed
13 13 13 13 12 13 13 13 13 13 13 13 13 13 13 13 14 14 13 13 14 15 15 16 16 16 16 18 19 19 17 9 13 7 5 15 4 12 9 4 4 3 7 2 0 0 1 2 2 2 3 2 1 3 3 1 1 2 2 4 3 5 4 4 5 6 1 1 6 8 2 3 5 2 0 6 7 10 6 6 2 8 6 5 4 14 15 14
12 13 13 14 13 13 13 13 13 14 13 13 13 13 13 13 14 14 15 14 14 15 15 14 15 16 16 17 18 19 14 8 11 12 23 3 12 11 14 14 6 8 9 3 4 2 3 0 1 3 4 2 1 1 3 1 1 3 1 3 9 5 6 5 3 5 1 6 6 8 5 1 5 5 0 6 7 11 8 5 5 10 10 12 13 15 15 14
15 12 12 13 14 13 14 14 13 13 14 13 14 13 13 14 13 14 14 15 15 15 15 15 15 15 16 17 17 17 11 10 5 11 15 14 20 19 16 15 12 10 4 3 3 5 4 4 6 4 1 2 0 2 2 1 4 4 6 5 8 4 3 5 2 4 4 7 9 8 8 4 1 1 1 3 7 7 12 11 7 11 12 13 14 15 14 14
16 16 13 13 14 14 14 14 14 14 14 14 14 13 13 14 14 13 13 14 14 15 15 14 14 15 16 17 16 9 6 5 4 5 1 5 9 13 18 18 12 11 4 0 4 3 1 6 5 5 1 2 1 0 3 3 3 1 2 6 3 4 4 4 5 9 10 4 4 4 6 3 0 1 2 6 6 0 3 10 19 16 16 15 15 15 14 15
17 17 18 16 14 14 15 14 15 14 14 14 14 14 14 14 14 14 13 14 14 14 15 14 14 14 16 16 14 4 4 3 4 2 1 6 5 8 12 15 15 8 7 4 4 1 2 3 3 1 2 3 1 1 2 2 2 3 7 2 3 0 2 5 5 7 4 4 2 3 4 2 1 2 6 10 4 10 10 11 3 14 19 19 18 15 14 14
17 16 18 18 17 15 15 15 14 14 14 14 14 13 14 14 14 13 13 13 13 14 14 14 13 14 15 15 7 1 1 2 1 1 12 5 5 7 9 12 17 10 8 6 4 3 5 1 3 1 1 2 4 5 2 2 1 3 3 2 5 6 6 0 1 2 1 2 3 5 2 2 1 1 7 6 2 5 1 1 6 7 9 14 16 19 16 13
16 16 16 17 17 18 17 15 14 14 14 13 14 14 13 14 14 13 13 13 13 13 14 14 13 14 14 10 3 1 3 9 2 3 14 11 8 10 2 13 16 12 8 6 3 4 2 3 3 2 3 2 1 3 3 1 0 3 5 1 5 4 7 5 5 7 5 6 7 3 4 5 2 3 1 3 4 3 4 8 12 13 13 14 16 13 13 12
17 17 17 17 16 17 19 18 16 14 14 14 14 13 13 13 13 13 13 13 12 13 13 13 13 13 12 4 4 1 1 12 6 5 14 15 10 11 10 6 13 11 10 10 8 5 5 6 7 3 2 7 3 6 1 1 0 3 3 3 5 5 5 6 5 5 5 6 7 5 5 4 5 4 3 2 2 2 7 13 15 15 15 13 12 14 13 12
16 16 16 16 16 17 18 19 18 16 14 13 13 13 13 13 13 13 13 13 12 12 12 12 12 12 7 2 1 3 10 6 2 7 11 13 9 6 8 3 7 14 8 6 7 7 7 5 4 5 4 1 2 3 2 3 5 4 6 4 4 5 5 5 5 7 5 3 3 1 2 2 5 7 5 5 5 4 10 14 15 16 16 14 13 13 13 13
15 16 17 16 17 16 16 18 18 18 15 14 13 12 13 13 13 13 13 12 12 11 12 12 11 11 4 3 1 2 8 4 3 6 9 11 9 5 8 5 5 8 9 5 5 6 6 5 7 4 4 1 2 2 1 5 4 3 3 4 5 8 5 4 3 2 0 3 3 4 0 3 2 4 2 5 8 9 12 14 13 14 15 14 12 12 12 11
15 16 16 17 17 16 17 17 18 18 18 14 12 12 12 12 12 12 13 13 12 12 11 11 10 7 2 3 1 9 3 1 2 7 9 9 9 5 1 6 2 5 8 5 6 7 3 7 4 4 0 3 3 1 2 3 0 2 2 2 5 6 4 6 3 8 0 3 6 5 3 1 5 1 4 9 10 11 13 14 14 12 12 12 13 10 6 8
17 16 16 16 17 17 17 17 18 18 17 17 13 12 11 10 10 11 12 12 12 12 11 9 10 4 5 5 8 12 2 3 8 9 11 7 6 5 6 5 4 3 8 8 6 3 5 4 4 2 2 2 0 0 1 2 1 3 0 3 5 7 4 1 4 2 5 3 4 4 4 2 5 1 4 10 12 11 13 16 14 11 10 9 10 8 6 7
17 17 17 16 16 16 17 17 16 17 18 18 14 11 9 9 10 12 11 11 11 11 11 10 7 2 3 9 14 19 18 16 12 12 13 5 6 6 4 3 4 5 4 6 4 4 3 4 2 0 1 2 2 2 0 1 3 1 1 1 5 6 6 6 1 2 5 2 9 5 1 4 1 2 9 10 13 13 12 13 13 9 8 8 9 7 7 4
17 17 17 17 16 16 16 17 16 16 17 18 16 11 7 7 10 11 11 11 12 12 11 10 2 1 5 11 7 5 8 6 10 13 12 3 2 4 1 1 3 2 1 3 3 4 4 2 3 1 0 1 1 2 3 3 3 2 1 2 0 1 4 3 2 2 6 1 8 2 1 4 1 2 10 9 14 17 13 13 13 10 9 10 8 6 6 5
17 17 16 17 16 16 17 17 17 15 17 17 17 13 6 6 8 10 10 9 10 10 10 6 2 2 4 10 8 15 23 12 10 17 9 2 2 4 3 3 2 4 4 5 3 3 5 3 3 1 2 1 0 2 4 2 4 1 1 4 4 2 5 9 2 6 6 1 4 6 0 5 2 7 10 9 8 13 16 13 10 10 11 10 8 7 5 4
17 17 17 16 16 16 16 17 17 15 16 17 17 13 8 8 6 6 8 9 11 11 3 2 1 3 5 12 6 5 0 3 8 8 7 8 4 5 1 3 2 2 4 1 1 3 2 4 5 6 1 2 4 4 2 1 2 4 2 3 0 1 5 6 0 2 5 3 1 4 4 1 0 5 9 9 9 10 13 13 10 10 11 9 7 5 5 6
18 18 17 16 16 16 16 16 16 16 16 16 14 13 5 1 3 7 8 10 6 4 3 1 2 3 3 5 4 3 3 5 4 3 2 6 9 6 3 1 1 3 2 5 4 4 2 4 1 2 1 4 4 5 3 2 3 2 2 2 3 2 2 2 9 2 3 2 1 2 6 5 2 11 11 6 4 1 11 13 10 9 11 9 6 6 8 6
19 19 18 17 16 16 15 16 16 15 16 15 13 2 1 2 7 9 5 3 1 2 2 2 1 2 12 7 8 4 3 4 1 3 3 2 8 5 5 2 1 4 5 3 1 3 2 2 1 5 1 3 3 4 8 8 7 3 1 1 2 0 1 3 1 2 1 2 6 2 4 4 1 9 11 9 10 9 10 13 11 11 10 7 6 8 9 7
17 18 18 18 16 16 15 15 16 15 16 10 3 2 1 2 2 2 1 2 4 1 1 4 5 6 1 2 4 6 6 6 6 2 3 5 2 3 1 3 4 5 2 4 1 5 1 2 3 3 7 4 7 7 8 6 7 6 6 5 2 2 2 2 2 4 0 0 6 6 5 3 6 11 11 10 5 1 1 8 6 6 7 6 8 7 7 7
17 16 16 17 16 15 14 14 15 14 14 3 1 1 2 1 1 0 2 5 6 7 3 3 13 5 10 3 2 8 8 2 2 3 2 1 8 5 3 3 2 3 5 6 2 4 4 6 7 9 7 10 7 9 8 6 7 2 3 3 1 1 4 3 2 5 5 1 0 3 5 7 10 12 11 14 5 5 5 10 4 6 7 8 8 9 7 6
19 16 15 14 15 14 14 13 13 13 12 4 4 2 2 4 1 3 4 7 12 12 12 7 13 15 11 2 4 12 11 7 1 3 2 2 3 10 3 4 3 3 3 6 7 1 5 6 8 4 5 6 7 6 5 5 2 4 3 2 0 1 2 2 2 4 6 0 2 4 7 9 12 11 10 9 7 8 11 12 15 9 7 7 11 10 8 6
19 15 15 15 14 13 12 12 12 12 11 5 4 4 2 3 1 2 2 4 7 16 15 17 9 11 14 14 9 5 2 4 12 7 6 5 4 11 2 4 4 8 2 3 5 3 5 8 3 5 6 6 5 6 6 8 4 1 2 2 0 4 4 5 1 4 3 1 1 1 8 8 8 10 11 13 13 12 13 14 14 15 9 6 9 10 9 8
20 16 12 13 15 14 11 12 11 9 0 3 4 6 3 3 5 1 1 5 11 9 14 15 14 15 21 11 5 2 2 6 8 5 2 4 3 7 8 6 7 5 3 6 9 6 4 5 7 4 6 7 1 4 5 4 3 5 3 2 4 3 2 3 1 3 6 1 1 3 3 2 1 2 9 10 6 1 6 7 3 1 10 8 8 8 10 8
11 13 11 11 12 14 11 10 8 5 3 6 6 6 3 2 2 2 3 3 6 4 10 13 17 13 17 8 5 11 8 5 5 6 5 3 7 4 7 7 8 6 8 6 6 8 5 1 8 8 7 8 6 4 7 6 4 1 5 4 3 1 1 3 1 4 2 3 4 6 6 3 1 5 4 4 1 7 5 5 3 3 7 8 7 7 7 8
10 11 13 12 12 11 9 7 3 4 3 6 5 2 5 8 3 3 3 2 2 7 6 6 5 6 9 4 5 6 5 4 9 3 1 4 4 6 4 2 5 8 6 7 7 6 5 2 7 11 5 5 6 5 5 9 5 2 4 7 6 3 4 1 2 6 6 3 2 4 1 2 3 5 10 7 5 6 4 5 3 4 5 5 3 4 6 7
11 12 12 11 9 9 3 0 3 3 6 5 4 3 3 3 4 3 2 0 5 3 4 6 9 8 9 4 8 5 2 5 8 11 3 4 2 3 3 3 3 9 6 8 8 4 6 2 8 9 8 5 5 4 5 7 6 4 6 7 5 5 4 1 1 2 1 2 0 1 4 2 3 5 6 6 8 8 5 9 11 9 8 8 5 7 4 8
10 8 10 9 9 1 1 2 2 4 4 3 5 3 3 4 5 7 2 1 3 5 8 1 8 1 6 11 12 8 2 8 2 4 7 5 4 1 9 4 2 2 4 3 2 4 3 4 5 4 8 9 5 6 3 8 8 4 2 8 7 5 5 3 2 4 4 1 4 2 2 2 1 6 3 6 8 7 6 9 8 9 9 10 11 8 3 8
9 7 6 8 10 2 2 1 2 4 1 6 3 2 2 3 5 1 1 0 3 3 2 2 5 2 3 12 15 12 4 1 5 4 8 6 2 1 4 7 7 8 4 5 10 2 7 5 7 5 4 6 10 5 7 8 7 3 4 10 9 10 9 6 5 4 2 1 7 4 0 1 2 5 1 10 9 5 11 11 11 9 10 12 12 12 5 7
9 7 7 8 9 5 1 1 2 4 2 3 4 4 3 1 4 3 2 2 1 1 3 6 4 2 4 10 10 11 3 1 1 3 3 2 4 3 4 6 7 8 3 7 7 2 1 9 10 10 8 8 4 6 11 11 5 3 4 3 4 3 2 4 5 3 0 2 5 2 2 1 4 2 4 7 9 10 12 14 14 13 14 14 12 15 12 8
9 8 6 7 2 2 1 1 5 3 1 6 5 4 3 5 4 1 1 3 0 1 1 0 2 4 8 11 5 9 4 2 1 3 3 3 5 1 1 5 6 6 3 2 5 7 1 2 10 6 7 3 5 4 9 9 4 4 6 5 3 4 2 2 5 3 3 1 7 6 6 4 3 5 9 11 13 14 12 8 7 9 11 12 11 12 11 10
8 8 8 0 1 1 1 2 3 2 5 3 2 2 5 1 2 2 1 4 3 1 2 2 2 9 11 13 9 8 4 2 2 8 7 3 4 1 5 2 3 4 3 3 4 4 0 3 3 2 8 3 5 4 1 7 5 8 2 4 0 3 4 2 1 2 2 4 5 4 7 5 5 2 4 7 4 13 14 14 14 15 17 14 12 11 10 10
7 6 7 1 2 2 2 2 5 6 3 1 2 3 2 4 2 3 5 2 1 3 1 1 2 6 11 6 7 11 8 1 1 7 12 10 7 8 11 9 7 7 7 5 4 1 4 2 2 1 8 12 4 7 3 2 2 5 7 7 9 2 1 3 1 2 4 5 1 1 4 2 6 7 4 9 6 11 13 14 18 19 15 15 12 12 11 9
6 6 6 4 3 2 3 2 1 4 2 3 3 2 2 2 3 5 5 5 3 6 4 3 2 5 9 6 6 9 4 6 3 4 10 5 9 3 1 6 4 6 6 1 4 4 3 1 3 2 2 6 10 10 4 3 5 7 7 6 8 4 3 5 2 0 2 5 3 2 1 1 3 6 3 7 7 5 10 6 5 7 8 10 12 12 10 9
6 5 2 3 3 2 0 1 3 3 0 0 2 3 2 2 2 3 3 3 5 8 7 3 8 2 9 7 5 9 6 3 4 5 10 8 11 9 5 3 10 3 6 6 7 7 3 6 8 4 2 3 10 7 8 4 7 6 4 7 7 5 4 4 3 5 5 6 2 4 3 4 2 3 3 4 3 1 8 8 7 10 10 9 11 11 9 9
4 2 2 2 1 3 4 4 2 2 2 1 2 3 2 3 2 2 2 5 3 8 6 9 2 4 4 2 1 7 3 2 3 6 6 11 11 10 11 8 1 7 4 9 4 3 13 3 5 8 3 7 9 4 7 8 7 1 4 7 4 8 5 1 4 5 4 2 0 1 2 0 2 4 4 1 3 4 10 11 11 10 10 10 11 14 10 8
2 3 1 1 1 1 5 2 1 3 1 2 3 2 1 1 2 4 4 4 4 9 13 11 5 4 2 3 0 10 6 2 4 5 2 7 4 8 4 4 6 6 7 7 3 2 3 4 1 3 3 7 8 6 4 7 5 4 6 10 6 4 4 3 1 1 2 4 1 0 3 3 1 2 3 6 8 7 9 11 11 9 10 11 9 12 10 7
2 1 1 1 1 2 4 3 3 3 2 1 2 0 3 2 5 4 6 7 8 11 6 4 3 3 3 6 3 9 4 4 2 4 4 4 3 6 7 3 5 4 8 9 1 2 8 2 2 5 7 4 4 11 6 5 7 6 5 6 3 3 4 3 3 1 2 4 2 1 3 2 2 3 5 8 10 10 12 14 13 10 9 10 6 2 11 8
3 3 2 3 2 2 4 2 1 1 2 1 1 2 1 2 2 4 3 8 10 9 4 1 2 5 3 3 3 9 3 3 4 2 4 4 1 3 7 5 4 7 6 1 7 3 4 1 4 5 9 5 3 4 2 1 4 10 7 6 9 5 7 2 2 1 1 0 1 3 3 2 4 2 7 11 13 14 13 11 13 12 10 10 12 4 10 9
1 1 1 3 2 3 3 3 1 3 1 2 2 2 4 3 3 3 4 6 5 8 4 2 3 2 2 4 2 3 3 4 3 3 7 3 3 5 8 4 3 6 8 5 3 1 1 2 1 2 7 5 5 6 7 9 3 2 5 9 2 6 2 4 6 4 5 2 2 2 2 4 4 4 11 13 13 14 15 15 17 16 12 12 12 9 12 9
1 1 3 2 2 3 3 3 3 2 1 3 1 2 4 4 2 2 4 7 4 4 2 4 3 3 3 1 3 5 1 5 6 2 2 2 2 0 6 6 6 6 6 4 2 2 1 1 1 2 2 7 6 6 10 10 9 4 5 6 2 0 2 5 1 2 3 6 5 4 1 6 8 5 8 12 12 16 19 18 14 13 13 13 12 9 11 12
1 1 1 2 3 2 2 2 1 3 1 1 1 3 5 4 5 3 5 5 5 4 6 4 3 2 2 3 1 2 2 2 2 2 1 4 4 2 4 5 7 8 3 2 3 1 2 1 4 1 4 7 7 5 5 10 10 7 8 7 7 6 4 8 6 3 3 5 4 5 3 7 8 2 4 8 9 10 10 10 9 11 13 14 12 11 9 13
1 2 1 2 3 2 1 2 2 1 1 2 2 3 4 5 3 4 4 3 5 5 3 5 6 7 3 4 2 0 4 3 1 2 0 5 3 2 5 8 9 9 7 4 5 3 4 3 3 1 6 7 3 1 5 15 12 8 9 5 7 3 6 4 4 4 4 1 2 2 3 2 2 2 3 7 8 11 10 12 11 10 11 13 12 12 8 14
4 1 3 4 3 1 3 3 2 1 1 2 4 4 2 3 2 2 4 3 3 5 3 5 5 2 5 4 1 1 4 1 4 3 2 3 3 5 5 11 10 11 8 3 4 4 3 0 3 2 4 4 4 2 2 7 11 4 5 4 6 5 6 8 5 6 6 2 1 1 0 3 2 3 1 9 8 9 7 10 12 11 10 12 14 13 13 13
1 1 2 2 1 1 3 1 2 3 3 3 1 6 3 4 3 2 4 3 3 3 3 2 3 3 3 1 1 1 2 2 2 5 0 1 2 6 7 8 13 7 10 6 6 3 2 2 5 1 1 1 5 4 4 1 3 3 5 4 8 4 4 2 5 2 4 7 7 6 3 3 3 1 6 10 11 10 12 9 11 11 9 11 13 11 11 14
1 1 1 3 3 4 1 1 0 1 3 5 5 7 5 3 5 8 6 5 6 7 3 5 5 3 3 2 1 1 0 2 1 3 4 4 2 1 6 9 7 7 5 7 7 6 4 3 3 2 5 6 7 9 7 6 9 2 0 5 5 9 7 4 4 1 4 1 4 4 2 3 1 4 7 10 11 10 10 11 10 11 11 12 12 11 11 12
2 1 4 3 3 3 2 1 1 2 4 4 4 4 3 2 2 6 10 11 10 8 9 8 9 6 4 0 2 2 2 0 2 3 3 1 1 0 4 10 7 5 6 13 8 7 2 1 3 5 5 5 6 5 4 3 3 4 3 10 6 6 9 6 6 5 7 4 4 5 6 6 8 10 10 12 12 13 13 13 14 14 12 11 12 12 11 11
0 2 0 1 3 0 2 0 3 3 3 4 4 3 2 2 5 7 7 4 5 9 3 8 3 1 2 2 1 1 1 1 1 8 4 3 1 1 4 10 8 9 10 9 10 6 3 2 4 5 1 2 2 4 2 2 6 5 7 8 6 8 7 8 8 7 5 11 4 2 5 11 12 12 11 13 13 12 10 11 11 13 14 12 12 12 12 12
2 1 0 2 0 1 2 3 1 5 6 4 3 2 4 5 5 4 3 9 8 4 3 0 2 2 1 2 2 2 3 2 3 2 1 1 1 3 3 2 5 8 10 4 6 5 5 5 2 3 1 0 2 2 1 2 1 4 7 9 7 7 6 9 6 4 8 6 7 6 9 10 11 16 18 18 19 20 18 15 12 11 13 12 12 13 13 13
1 1 1 1 1 1 3 4 6 6 7 6 3 3 4 5 8 5 4 5 2 1 5 1 1 1 2 3 2 2 1 2 3 2 2 1 1 1 2 2 1 3 5 4 4 1 5 3 3 2 2 4 6 6 3 6 2 4 4 2 5 12 10 8 4 5 7 3 5 11 13 5 2 9 10 6 5 10 10 10 11 12 13 14 13 12 13 12
3 3 2 0 2 5 6 4 4 4 7 6 4 5 3 2 4 7 3 2 3 3 2 3 2 2 2 4 3 3 1 3 2 2 0 1 1 1 1 2 1 1 3 5 5 2 4 2 5 4 2 2 5 6 6 2 2 7 2 2 2 5 5 2 5 3 5 6 2 7 10 4 2 6 9 9 10 9 11 13 14 13 13 15 15 14 13 13
3 2 3 3 3 3 2 3 4 4 4 2 4 4 3 4 5 7 5 2 0 1 3 1 2 1 2 4 3 2 1 1 1 2 2 2 3 1 2 2 1 6 5 4 3 1 3 1 1 3 4 1 2 5 3 5 5 7 4 3 4 7 7 3 5 5 5 6 6 9 4 4 4 9 10 12 14 14 15 15 14 12 14 14 15 15 15 14
3 2 2 3 3 3 3 4 4 2 3 2 3 5 5 6 7 6 2 3 1 0 1 1 1 1 3 8 6 5 3 1 4 5 4 5 4 5 0 3 2 7 7 5 1 5 3 5 4 5 7 3 1 3 3 4 4 4 1 1 1 3 2 2 3 2 2 13 12 7 11 5 10 12 15 14 17 15 14 15 14 14 13 14 16 16 15 14
Wind_Direction
303 303 304 303 305 307 307 306 308 308 311 311 310 313 314 316 316 317 319 321 326 327 325 325 323 322 324 326 327 326 333 337 314 314 289 244 181 233 223 200 79 129 199 152 31 87 359 33 81 3 69 100 248 131 223 115 136 69 160 125 242 202 180 212 187 188 212 284 296 320 338 317 321 30 24 57 62 106 91 86 72 44 50 97 91 106 114 123
297 300 301 301 301 300 302 303 306 306 306 306 307 308 313 315 316 317 319 320 324 324 325 322 325 323 324 325 329 329 338 317 302 287 247 123 228 212 226 235 180 130 117 78 126 149 113 356 169 93 114 140 301 140 124 233 119 133 127 125 228 182 239 167 195 222 329 285 286 293 320 269 272 138 186 97 131 123 103 87 87 100 97 96 100 111 117 124
299 293 294 297 297 296 298 301 299 301 303 304 305 308 311 309 313 314 318 320 323 325 323 326 322 322 327 326 324 341 341 317 298 261 281 191 231 223 220 220 195 162 157 146 198 151 159 192 165 105 91 93 348 149 161 236 153 223 126 219 236 201 244 209 230 273 227 261 290 321 312 1 279 70 85 123 151 137 143 138 129 138 132 127 125 119 123 129
303 299 290 290 293 294 295 295 296 297 298 301 303 307 306 310 309 314 316 321 324 323 320 325 325 326 323 325 335 344 16 287 271 247 270 266 236 236 230 226 186 170 112 92 155 162 130 89 116 116 112 113 279 134 144 234 145 258 148 206 236 214 222 261 203 234 256 250 271 284 304 46 312 97 91 142 109 277 266 194 160 162 148 142 137 131 131 137
302 300 302 289 286 288 291 293 296 297 297 299 301 303 306 304 309 309 316 318 322 323 320 321 326 322 325 326 343 25 326 8 268 175 323 330 282 259 227 215 176 163 150 137 96 89 134 124 115 51 100 184 338 78 241 241 198 110 219 192 223 262 220 247 234 246 242 250 238 290 346 299 325 76 118 168 183 194 205 207 195 150 143 145 145 139 136 134
315 309 297 296 288 285 285 287 290 291 293 295 297 300 302 304 306 310 313 318 321 321 321 320 323 327 326 337 338 92 147 173 301 76 326 327 323 316 247 184 169 142 131 130 147 145 119 56 94 128 86 102 190 153 267 195 132 233 304 252 234 240 248 212 230 215 163 289 284 311 275 353 114 223 163 153 271 265 180 116 121 130 131 138 133 142 140 139
313 310 306 295 294 289 284 282 282 286 290 291 295 298 301 304 303 308 312 319 317 322 319 318 322 324 333 352 305 119 218 285 339 300 355 7 19 27 38 160 145 136 142 132 141 144 160 125 121 177 111 104 269 181 244 181 214 192 250 277 288 231 236 241 261 258 271 272 268 236 331 296 159 135 239 73 304 285 89 106 116 122 126 131 135 133 127 128
311 312 310 307 294 287 288 281 276 279 285 288 291 295 299 300 303 306 312 310 318 321 321 318 319 325 348 2 5 331 359 247 267 324 4 12 16 54 78 123 135 136 143 166 163 161 137 138 168 149 106 154 215 158 259 165 296 213 262 254 262 266 238 249 257 285 270 263 259 269 281 266 193 160 83 26 42 74 92 108 119 124 127 124 123 129 131 138
315 310 310 308 305 297 285 279 275 273 277 284 286 292 296 298 300 304 310 313 316 317 316 317 321 325 30 86 129 344 246 251 6 345 10 8 352 51 80 105 152 147 162 147 174 169 138 221 149 175 218 185 197 134 243 142 299 211 222 234 260 267 289 276 295 262 261 264 200 273 341 25 131 118 57 125 115 110 114 117 130 133 132 129 132 134 150 158
314 312 310 309 306 305 300 287 279 277 270 273 283 284 290 297 300 304 306 311 306 313 309 313 319 328 26 22 338 233 262 202 21 2 0 359 356 344 41 130 171 130 125 174 124 143 179 198 167 187 126 147 163 199 139 149 224 170 222 239 257 262 277 297 206 288 207 218 190 191 167 169 305 86 239 142 131 126 122 123 130 135 133 134 141 161 167 149
312 310 308 308 307 308 306 302 283 275 271 270 273 280 288 296 303 305 306 305 306 300 308 305 312 321 41 73 279 223 255 92 9 348 343 351 340 7 51 123 178 143 126 141 176 181 166 152 182 118 19 224 131 266 143 214 192 215 206 309 283 286 269 245 308 274 137 292 190 165 163 259 314 68 170 145 136 136 129 128 132 133 133 144 155 163 126 107
309 307 307 306 306 305 307 305 293 273 269 268 267 274 286 295 301 304 302 300 301 303 299 303 298 313 278 265 232 223 350 303 327 322 320 332 309 289 239 176 153 152 138 160 210 177 159 174 130 130 175 136 178 46 261 256 5 268 86 310 301 344 340 259 200 259 154 250 135 151 82 345 1 304 166 140 137 137 136 133 136 138 140 140 155 156 121 140
305 305 305 304 303 306 303 302 306 299 275 264 264 269 275 282 292 299 302 303 301 300 298 299 314 275 340 281 240 252 285 287 308 314 307 291 270 265 213 205 155 150 161 145 187 206 207 178 118 69 226 114 181 135 191 38 290 316 52 120 341 356 335 277 150 130 152 241 151 153 104 269 291 256 144 148 137 138 134 137 142 144 135 149 163 154 114 123
301 302 304 304 303 303 304 302 308 307 290 271 264 263 259 274 288 297 299 296 300 298 300 301 327 257 241 256 276 289 266 291 297 300 277 299 221 292 30 195 186 151 132 166 141 165 188 242 175 185 114 123 213 290 15 343 20 188 256 68 107 12 273 284 110 148 153 218 184 96 168 281 263 253 152 156 153 144 146 148 149 142 149 165 173 153 122 148
297 299 299 301 303 301 303 304 307 308 300 271 258 257 246 259 281 288 294 305 305 305 298 307 266 352 266 268 278 261 253 263 272 252 242 217 181 315 312 127 145 177 173 160 152 181 180 119 117 144 253 261 74 15 327 23 1 352 69 276 328 148 274 297 192 166 139 323 254 88 122 220 271 178 159 159 158 149 146 156 156 147 155 164 169 168 127 151
295 295 297 298 299 301 300 304 305 309 303 283 259 260 251 263 274 281 289 292 297 295 322 309 238 174 315 287 262 297 318 162 247 255 235 176 188 222 215 124 153 126 119 201 137 109 112 143 163 188 172 48 80 107 31 16 331 352 141 279 273 131 262 343 285 101 66 119 347 160 194 33 93 194 168 161 162 158 147 153 148 148 160 160 164 145 132 140
290 292 294 295 297 298 300 301 304 304 308 292 264 258 267 283 278 272 272 281 284 287 231 265 98 169 212 227 331 299 247 236 273 317 56 194 183 180 142 333 179 93 78 77 149 99 98 139 215 73 31 138 164 108 142 290 310 274 9 184 205 182 260 247 300 60 112 102 151 19 118 210 201 172 170 136 36 132 156 156 152 157 171 174 135 149 150 145
292 291 290 293 295 297 298 298 300 303 308 294 259 114 103 261 272 277 282 262 267 234 231 233 207 230 263 275 283 247 278 295 310 280 277 231 187 164 159 153 62 108 119 76 41 130 197 159 110 194 103 138 117 111 160 208 180 199 197 124 285 310 177 245 340 283 31 65 117 29 82 195 178 165 162 129 164 174 182 175 162 157 164 158 132 150 154 147
285 291 294 292 293 294 296 298 300 306 309 299 138 116 353 24 40 111 151 162 121 19 20 215 177 170 226 290 283 342 317 276 286 217 248 124 133 133 106 115 105 118 125 113 248 134 177 77 55 99 176 153 182 167 170 193 170 190 167 165 152 135 219 219 249 276 80 80 104 141 153 176 156 168 156 135 178 160 90 30 318 149 150 134 151 155 158 157
273 276 282 287 289 291 292 296 298 304 313 290 113 66 11 29 263 209 195 197 218 200 191 184 207 307 322 284 31 329 257 306 319 252 231 253 115 128 150 123 66 69 119 169 159 197 141 162 183 191 184 186 183 170 169 177 159 112 99 107 142 159 286 284 273 269 328 49 146 166 156 160 169 171 159 162 139 107 107 141 249 278 163 157 164 163 162 147
270 268 276 280 283 286 291 295 298 303 308 165 141 129 205 191 94 280 158 223 226 239 257 245 203 224 237 14 334 14 12 320 30 295 247 148 120 137 206 128 117 138 184 159 148 246 108 176 219 187 175 170 177 167 148 101 94 134 117 112 310 120 253 238 37 322 319 142 313 110 130 177 175 175 149 132 138 164 169 185 170 263 229 168 165 168 158 125
268 268 269 272 276 281 290 289 298 305 298 183 164 192 200 207 50 118 71 282 228 231 241 253 245 258 262 267 273 359 1 297 309 285 275 155 204 171 220 130 147 171 188 137 79 119 182 202 178 200 180 148 134 158 150 148 155 99 165 153 87 277 260 291 274 328 314 68 285 323 131 197 192 166 148 160 179 191 188 181 175 169 251 190 172 164 141 126
267 260 271 287 284 283 289 294 292 310 52 191 185 202 237 292 289 306 98 272 281 225 221 229 246 250 260 252 251 179 215 231 255 296 264 146 170 198 139 137 155 152 148 162 164 134 183 251 227 167 129 123 82 121 129 130 116 136 96 122 210 245 137 279 314 350 329 78 213 204 123 305 354 39 159 184 186 59 39 12 91 103 181 229 183 148 139 134
281 269 269 269 283 283 285 287 299 288 218 205 207 177 192 212 48 9 119 245 291 263 189 214 209 223 237 217 196 175 197 244 172 268 270 160 165 162 139 152 144 149 187 164 152 152 178 223 171 131 141 145 161 147 136 144 189 269 162 157 189 158 248 150 243 308 329 4 92 87 39 350 100 161 143 35 63 91 46 45 21 101 45 5 350 103 132 135
282 267 260 261 261 276 291 330 279 228 199 213 221 193 245 251 217 100 94 310 271 275 198 241 181 241 234 139 133 155 220 260 219 235 263 152 166 129 190 144 126 192 160 160 119 144 229 268 144 141 154 153 148 154 174 136 175 222 239 188 188 174 202 310 353 32 18 359 299 113 38 282 276 221 183 142 115 105 114 123 127 86 69 140 315 332 112 113
283 274 274 268 270 285 5 194 218 173 175 209 127 139 252 243 201 159 104 268 285 246 102 237 146 251 141 193 138 181 95 257 202 213 204 218 220 150 119 176 141 188 155 143 157 173 195 146 148 159 152 170 165 164 204 155 164 143 254 184 166 160 169 132 340 60 22 145 313 54 169 253 325 213 204 147 160 132 151 186 184 173 173 171 137 269 155 130
304 297 275 268 279 223 100 213 325 139 183 190 97 32 325 332 164 164 127 295 306 203 165 141 164 281 148 164 153 146 132 256 118 166 193 242 180 189 148 192 93 74 150 151 77 239 148 157 143 126 153 162 158 192 219 149 130 213 239 151 151 149 159 181 145 145 218 260 304 19 126 168 276 257 174 152 152 142 167 222 193 184 170 187 171 174 229 143
304 291 278 274 267 196 192 70 313 206 164 102 85 328 349 355 122 135 74 113 282 143 138 233 225 153 158 167 160 170 210 151 133 213 191 194 176 251 132 180 159 154 169 124 181 261 160 168 157 152 163 167 193 181 171 155 138 216 188 148 164 178 195 183 163 183 206 63 287 320 149 57 254 275 165 141 159 171 191 206 209 183 183 190 170 135 201 155
303 294 286 284 281 265 138 216 200 262 54 65 18 360 7 166 141 132 178 146 239 89 105 116 259 113 89 151 175 193 235 217 161 163 159 107 217 139 145 194 141 153 160 155 160 208 242 173 181 159 163 200 170 166 154 160 146 268 150 91 112 81 73 145 153 141 301 97 261 256 197 140 281 286 115 155 182 191 200 206 208 190 189 190 171 155 173 152
305 298 288 292 339 32 151 194 235 163 84 31 2 352 74 109 165 149 93 273 120 322 131 268 183 186 142 150 186 218 224 301 98 124 122 151 210 4 17 146 127 137 132 80 155 199 173 303 164 149 184 164 153 175 160 165 177 142 142 126 71 49 57 40 73 112 68 242 247 212 224 155 273 240 173 159 206 194 196 202 201 191 189 179 167 157 155 154
301 300 296 154 173 194 110 222 264 173 61 45 335 81 112 113 183 179 154 240 26 296 58 168 186 117 146 157 170 214 234 287 113 153 134 138 168 197 125 84 56 75 73 98 179 229 294 81 114 243 138 142 125 134 253 169 145 124 139 126 66 305 20 39 346 49 171 266 261 237 201 168 189 288 228 223 169 187 184 189 187 182 183 168 160 153 152 151
304 289 281 223 206 133 158 165 112 85 102 182 136 120 180 153 11 182 214 12 106 321 133 147 112 147 168 174 156 177 184 170 245 168 158 170 161 163 184 174 153 145 180 167 213 353 242 150 235 255 166 143 143 116 173 102 176 110 92 96 150 259 82 273 137 245 200 195 242 112 149 67 236 218 233 206 193 184 193 193 188 181 170 164 154 150 151 147
304 286 270 246 245 150 237 145 146 88 60 43 89 152 172 129 190 243 281 318 81 14 333 350 146 176 166 152 205 179 193 183 198 180 142 141 147 183 199 147 176 131 164 196 105 148 289 314 314 297 181 173 144 155 166 157 204 148 160 139 130 152 168 211 269 228 316 288 242 33 296 247 256 295 220 219 215 223 188 165 158 163 159 151 149 147 146 152
310 295 273 239 200 208 30 86 73 56 324 45 142 136 26 86 241 203 232 27 315 344 313 11 335 177 161 173 195 165 171 251 149 177 161 157 160 171 215 190 144 102 88 158 158 175 124 220 243 166 215 181 163 178 170 147 138 182 109 143 169 134 160 210 190 185 205 204 281 294 134 234 118 230 320 305 279 238 114 107 116 137 146 142 140 136 128 145
311 311 233 300 252 229 200 161 133 202 163 296 136 187 129 226 235 340 62 357 332 325 303 315 218 121 188 268 156 182 154 198 189 135 163 154 184 178 176 182 194 113 130 136 232 121 201 187 250 193 199 168 171 158 118 113 99 207 153 78 119 216 131 141 207 154 199 161 9 6 176 237 206 293 309 140 128 129 121 115 116 140 142 142 146 144 141 147
12 306 246 245 248 88 131 100 132 195 224 203 157 151 190 253 310 17 28 322 308 344 322 325 135 126 175 209 194 182 246 136 205 122 145 167 142 169 179 159 175 173 144 160 193 141 89 225 282 228 145 165 175 150 185 139 167 222 119 193 200 144 105 79 72 31 84 58 274 45 305 246 270 296 95 136 125 134 127 129 133 152 146 145 144 141 129 140
331 303 314 311 333 84 123 152 215 224 237 208 105 94 227 48 30 9 11 353 327 316 317 49 168 118 180 201 180 177 224 88 163 115 175 132 154 176 170 185 146 145 170 128 253 196 147 228 269 135 214 251 206 169 167 171 138 109 182 227 113 90 103 137 224 353 59 160 231 49 201 223 95 298 162 147 143 148 148 146 144 154 146 143 113 74 126 141
307 300 74 41 96 114 100 117 343 267 254 203 195 188 330 1 80 61 338 341 336 340 322 333 292 98 189 144 194 169 236 127 197 96 156 195 207 170 152 159 186 165 193 209 139 237 122 94 256 191 180 185 86 106 100 179 147 156 181 192 148 224 232 306 91 260 124 171 246 323 236 233 194 244 172 173 166 162 157 146 141 153 148 123 128 183 126 132
271 271 8 9 144 165 145 137 232 263 236 120 346 299 22 21 85 52 359 325 293 318 316 306 13 296 144 157 184 146 167 158 174 140 127 222 126 198 168 144 179 202 179 160 79 165 69 134 304 262 165 171 133 135 195 194 343 48 98 174 187 107 141 125 200 174 112 196 91 289 314 255 219 220 197 188 174 159 155 154 161 162 151 140 143 153 133 129
32 279 53 329 82 197 163 147 236 214 310 142 297 300 13 346 42 21 358 357 335 2 309 303 7 320 350 250 168 156 54 118 147 215 101 196 99 284 180 157 155 185 183 177 136 175 107 107 137 290 272 133 189 191 203 167 158 134 156 185 200 65 224 110 48 123 164 163 170 143 258 263 247 208 186 194 179 171 168 163 158 152 144 136 135 138 134 126
262 118 43 303 344 141 132 213 259 15 41 252 225 317 358 354 336 323 322 281 276 232 231 272 309 278 322 10 63 138 115 105 125 111 123 166 143 148 244 174 144 165 122 147 162 200 74 137 187 326 130 196 214 221 150 152 161 173 164 192 159 115 127 162 234 31 87 105 190 122 227 264 269 304 224 179 180 163 162 149 138 135 138 135 134 131 141 127
359 57 294 294 309 123 112 43 346 235 78 47 28 350 320 334 325 314 312 303 240 262 228 263 246 240 254 246 189 38 126 128 137 97 281 151 207 126 203 158 154 148 141 176 174 240 148 167 104 187 202 198 206 121 171 164 165 170 156 201 170 152 121 134 176 225 60 61 105 154 107 273 248 258 282 158 139 158 159 146 137 133 130 126 126 129 135 125
31 37 268 284 305 97 55 53 302 28 342 248 321 279 291 299 255 278 305 276 282 221 247 223 237 208 236 216 221 144 140 119 158 175 207 130 212 207 204 165 150 152 139 181 130 217 140 100 111 289 297 298 321 316 75 163 155 139 201 115 131 194 184 170 162 185 139 168 62 345 76 257 297 320 75 112 115 131 136 145 142 139 137 131 131 136 141 126
14 32 334 299 9 93 67 98 334 312 303 312 276 278 237 245 217 276 243 255 226 311 275 292 306 207 305 211 229 169 175 104 224 148 99 237 181 221 146 173 158 162 155 218 160 215 120 287 119 79 64 352 358 22 35 71 170 163 179 203 190 143 76 148 106 77 126 209 163 123 214 272 282 339 99 111 119 133 138 140 136 130 132 133 134 138 135 127
352 283 248 298 355 60 114 185 324 298 319 314 307 283 286 240 224 224 234 247 218 242 280 248 219 350 300 299 318 2 71 148 139 233 131 172 219 78 169 159 190 153 166 179 167 159 153 191 124 130 153 158 174 178 192 179 201 215 158 158 174 150 132 109 160 122 176 228 130 144 218 257 241 111 120 125 130 130 138 141 137 131 134 137 134 134 130 124
22 64 309 332 359 28 54 304 35 313 314 308 284 266 268 278 266 239 225 257 226 224 224 275 303 271 250 325 21 24 2 359 144 187 134 181 294 327 168 170 176 170 184 160 150 132 163 157 135 150 152 179 201 212 251 128 81 161 201 162 194 172 165 138 116 123 184 187 179 227 166 152 163 159 155 150 144 148 149 151 151 145 145 142 137 136 136 134
240 91 266 334 330 12 297 246 300 318 297 350 302 342 297 257 289 295 197 250 212 195 226 213 236 345 265 84 50 26 343 330 353 134 169 145 257 237 317 174 180 186 170 160 151 100 96 154 202 151 161 189 200 219 234 251 176 189 144 188 168 157 153 129 146 205 162 109 220 273 189 145 197 178 175 156 150 148 152 150 149 146 147 148 144 135 131 133
58 262 331 237 118 279 358 296 222 255 257 266 271 293 269 290 287 279 244 231 263 188 190 320 213 243 240 128 128 80 327 54 44 96 25 357 100 352 52 11 177 206 174 155 172 131 140 171 249 114 11 245 337 330 254 107 141 158 165 161 170 173 171 155 195 169 145 151 195 213 178 182 189 186 179 176 169 166 164 160 150 142 134 134 139 140 142 143
166 219 219 271 348 241 219 279 276 252 263 223 259 246 271 260 275 255 241 314 291 171 192 152 38 17 81 56 95 140 15 85 17 352 100 34 111 77 88 36 253 334 177 130 185 147 118 198 179 132 129 11 5 2 342 129 129 65 34 168 170 161 187 174 149 180 163 175 199 161 180 185 201 176 169 146 114 126 129 126 131 142 149 143 142 144 144 148
11 336 324 304 280 284 287 295 287 288 275 255 246 228 235 232 306 342 335 251 324 327 41 92 29 12 37 83 75 83 86 108 124 83 306 102 5 88 166 179 148 24 143 159 167 287 126 249 151 124 63 9 360 12 27 39 186 101 20 36 99 128 83 95 113 111 86 53 54 133 153 185 263 145 136 120 113 114 125 144 150 149 150 152 150 150 152 154
308 282 286 299 291 244 255 268 267 278 287 242 218 295 270 298 333 354 292 255 132 360 5 317 295 349 348 68 93 91 100 111 174 216 232 178 96 202 136 267 133 148 147 145 167 151 107 179 38 96 93 321 13 22 345 27 72 92 74 51 106 139 134 171 142 203 130 143 119 113 119 227 230 148 127 136 137 145 152 154 152 158 158 154 153 154 156 160
308 239 254 302 292 351 327 301 269 271 297 271 282 326 341 315 312 338 333 297 324 275 352 284 287 96 357 40 16 355 347 340 252 245 218 219 227 288 307 123 141 153 157 152 5 132 143 130 133 120 124 233 313 18 4 1 43 58 20 325 251 326 50 93 34 90 212 143 128 141 212 192 162 153 144 156 158 157 155 160 156 157 163 161 159 158 162 165